This demonstration page uses our WeatherBlox Daily Observations layout. Learn more.

Left ArrowRight Arrow

47.50024, -111.30081

Hourly Observations for March 6, 2017

Temp ( °F °C ) Dew Point ( °F °C ) Humidity (%) Winds ( mph kmh ) Pressure ( in mb ) Visibility ( mi km ) Precip ( " mm )
12:24 am 00:24 Cloudy 18 -8 14 -10 86 86 WSW 6 9 29.77 1008 10 16 0.00 0.00
12:53 am 00:53 Cloudy 17 -8.3 14 -10 88 88 WSW 6 9 29.68 1005 10 16 0.00 0.00
1:53 am 01:53 Cloudy 17 -8.3 14 -10 88 88 WSW 6 9 29.69 1005 10 16 0.00 0.00
2:45 am 02:45 Partly Cloudy 18 -8 14 -10 86 86 SW 9 15 29.77 1008 10 16 0.00 0.00
2:53 am 02:53 Mostly Clear 17 -8.3 14 -10 88 88 SW 8 13 29.70 1006 10 16 0.00 0.00
3:53 am 03:53 Clear 17 -8.3 14 -10 88 88 W 5 7 29.71 1006 9 14 0.00 0.00
4:53 am 04:53 Mostly Clear 16 -8.9 14 -10 92 92 SSW 9 15 29.74 1007 10 16 0.00 0.00
5:53 am 05:53 Clear 18 -7.8 14 -10 84 84 SW 10 17 29.74 1007 10 16 0.00 0.00
6:53 am 06:53 Clear 17 -8.3 13 -10.6 84 84 SW 12 19 29.76 1008 10 16 0.00 0.00
7:53 am 07:53 Sunny 21 -6.1 17 -8.3 85 85 SW 12 19 29.78 1008 10 16 0.00 0.00
8:53 am 08:53 Sunny 26 -3.3 17 -8.3 69 69 SW 14 22 29.78 1009 10 16 0.00 0.00
9:53 am 09:53 Sunny 31 -0.6 16 -8.9 54 54 WSW 15 24 29.78 1008 10 16 0.00 0.00
10:53 am 10:53 Sunny 34 1.1 13 -10.6 42 42 W 21 33 29.77 1008 10 16 0.00 0.00
11:53 am 11:53 Sunny 37 2.8 12 -11.1 36 36 W 25 41 29.77 1008 10 16 0.00 0.00
12:53 pm 12:53 Mostly Sunny 36 2.2 10 -12.2 34 34 W 25 41 29.76 1008 10 16 0.00 0.00
1:53 pm 13:53 Partly Cloudy 38 3.3 9 -12.8 30 30 WSW 26 43 29.76 1008 10 16 0.00 0.00
2:53 pm 14:53 Mostly Sunny 39 3.9 8 -13.3 28 28 W 24 39 29.77 1008 10 16 0.00 0.00
3:53 pm 15:53 Sunny 35 1.7 11 -11.7 37 37 WSW 22 35 29.80 1009 10 16 0.00 0.00
4:53 pm 16:53 Mostly Sunny 34 1.1 12 -11.1 40 40 W 22 35 29.81 1010 10 16 0.00 0.00
5:53 pm 17:53 Sunny 31 -0.6 12 -11.1 45 45 WSW 16 26 29.82 1010 10 16 0.00 0.00
6:53 pm 18:53 Clear 27 -2.8 13 -10.6 55 55 WSW 13 20 29.85 1011 10 16 0.00 0.00
7:53 pm 19:53 Clear 27 -2.8 13 -10.6 55 55 SW 13 20 29.83 1010 10 16 0.00 0.00
8:53 pm 20:53 Clear 25 -3.9 13 -10.6 60 60 WSW 13 20 29.83 1010 10 16 0.00 0.00
9:53 pm 21:53 Clear 27 -2.8 13 -10.6 55 55 WSW 15 24 29.82 1010 10 16 0.00 0.00
10:53 pm 22:53 Clear 25 -3.9 14 -10 63 63 WSW 12 19 29.81 1010 10 16 0.00 0.00
11:53 pm 23:53 Clear 24 -4.4 15 -9.4 68 68 WSW 14 22 29.81 1010 10 16 0.00 0.00

Powered by AerisWeather